User: anonymous   Login
Location: Cronhütte
(48.9135°N, 9.6869°E)
Time: 17:15:49
(UTC+00:00)
Language:

Genesis I - Orbit

View from above orbital plane
View from above orbital plane
View from above satellite
View from above satellite

Ground track
Ground track

The orbit data is extracted from the following two-line orbital elements,

1 29252U 06029A   24200.35608666  .00027032  00000-0  66628-3 0  9990
2 29252  64.5157  60.7445 0027173 318.2847  41.6214 15.40110336995453
Epoch (UTC): 18 July 2024 08:32:45
Eccentricity: 0.0027173
inclination: 64.5157°
perigee height: 427 km
apogee height: 464 km
right ascension of ascending node: 60.7445°
argument of perigee: 318.2847°
revolutions per day: 15.40110336
mean anomaly at epoch: 41.6214°
orbit number at epoch: 99545

The dashed part of the orbit path shows where the satellite is in the earth's shadow,  

DLR